Terminal Aerodrome Forecast
Issued by NWS

Home | Current Version | Previous Version | Text Only | Print | Product List | Glossary On
Versions: 1 2 3 4 5 6 7 8 9 10 11 12 13 14 15
000
FTAK31 PANC 231606 AAB
TAFAVD
TAF AMD
PAVD 231606Z 2316/2412 22005KT P6SM -RA BKN015 OVC030
      TEMPO 2316/2320 2SM BR BKN008 OVC015
      AMD LTD TO CLD VIS AND WIND=

USA.gov is the U.S. government's official web portal to all federal, state and local government web resources and services.